Regional Weather Roundup
Issued by NWS Albany, NY

Home | Current Version | Previous Version | Text Only | Print | Product List | Glossary On
Versions: 1 2 3 4 5 6 7 8 9 10 11 12 13 14 15 16 17 18 19 20 21 22 23 24 25 26 27 28 29 30 31 32 33 34 35 36 37 38 39 40 41 42 43 44 45 46 47 48 49 50
000
ASUS41 KALY 011710
RWRALY

NEW YORK STATE HOURLY WEATHER ROUNDUP
NATIONAL WEATHER SERVICE ALBANY NY
1200 PM EST SUN FEB 01 2015

NOTE: "FAIR" INDICATES FEW OR NO CLOUDS BELOW 12,000 FEET WITH NO
SIGNIFICANT WEATHER AND/OR NO OBSTRUCTIONS TO VISIBILITY.

NYZ032-033-038>043-046>054-057>066-NYZ062>081-011800-
EAST


CITY           SKY/WX    TMP DP  RH WIND       PRES   REMARKS
ALBANY         MOSUNNY   22  10  60 NE10      30.17F WCI  11
GLENS FALLS    SUNNY     15   4  61 E12       30.19F WCI   2
POUGHKEEPSIE   MOSUNNY   34  18  52 CALM      30.16F
NEWBURGH       MOSUNNY   30  23  74 W12       30.15F WCI  21
MONTGOMERY     SUNNY     32  18  56 NW8       30.14F WCI  25
WHITE PLAINS   MOSUNNY   31  18  58 NW9       30.14F WCI  23
ISLIP          PTSUNNY   34  20  56 NW10      30.16F WCI  26
NEW YORK CITY  PTSUNNY   35  18  49 W5        30.18F WCI  31
CENTRAL PARK   CLOUDY    34  17  50 VRB3      30.20F
$$

NYZ005>009-017-018-044>046-055-056-011800-
CENTRAL


CITY           SKY/WX    TMP DP  RH WIND       PRES   REMARKS
FULTON         MOSUNNY   15   5  64 N7        30.23F WCI   5
SYRACUSE       MOSUNNY   19   8  62 VRB5      30.21F WCI  12
ROME           SUNNY     17   4  56 N6        30.23F WCI   9
ELMIRA         CLOUDY    25  19  78 N8        30.15F WCI  16
BINGHAMTON     LGT SNOW  23  17  78 N6        30.09F WCI  16
MONTICELLO     CLOUDY    27  19  74 NW12G17   30.11S WCI  16
$$

NYZ026>034-041>043-011800-
NORTH


CITY           SKY/WX    TMP DP  RH WIND       PRES   REMARKS
WATERTOWN      SUNNY      9  -3  58 NE16      30.28F WCI  -8
FORT DRUM      NOT AVBL
MASSENA        SUNNY      2 -10  57 NW9       30.33F WCI -13
SARANAC LAKE   SUNNY      5  -4  66 VRB5      30.09F WCI  -4
PLATTSBURGH    SUNNY      9  -3  58 N15       30.26F WCI  -8
$$

NYZ001>004-010>016-019>021-011800-
WEST


CITY           SKY/WX    TMP DP  RH WIND       PRES   REMARKS
NIAGARA FALLS  FLURRIES  19  14  81 NE14      30.19F WCI   6
BUFFALO        FLURRIES  20  14  77 NE15      30.18F WCI   6
DUNKIRK        LGT SNOW  25  21  85 NE9       30.14F FOG     WCI  15
JAMESTOWN      CLOUDY    25  21  86 E6        30.05F WCI  18
WELLSVILLE     CLOUDY    25  19  78 VRB3      30.06F
ROCHESTER      LGT SNOW  18  12  77 NE10      30.23F WCI   6
PENN YAN       CLOUDY    19  12  74 NE7       30.18F WCI  10
$$

             KEY
       WCI = WIND CHILL INDEX
       VSB = VISIBILITY
       HX  = HEAT INDEX
$$


USA.gov is the U.S. government's official web portal to all federal, state and local government web resources and services.